| time (UTC) | temp F | wind direction | speed MPH | gust MPH | rain 1hr in | rain 24hr in | rain mn in | humidity % | barometer mb |
| 20260505191403 | 43 | 308 | 0.0 | 0.0 | 0.00 | 0.00 | 0.00 | 42 | 1011.9 |
| 20260505190903 | 43 | 308 | 0.0 | 0.0 | 0.00 | 0.00 | 0.00 | 40 | 1011.8 |
| 20260505190402 | 44 | 308 | 0.0 | 0.0 | 0.00 | 0.00 | 0.00 | 40 | 1011.7 |
| 20260505185903 | 44 | 308 | 0.0 | 0.0 | 0.00 | 0.00 | 0.00 | 40 | 1011.7 |
| 20260505185403 | 45 | 308 | 0.0 | 1.0 | 0.00 | 0.00 | 0.00 | 40 | 1011.7 |
| 20260505183903 | 46 | 296 | 1.0 | 3.0 | 0.00 | 0.00 | 0.00 | 36 | 1011.5 |
| 20260505183403 | 46 | 298 | 2.0 | 3.0 | 0.00 | 0.00 | 0.00 | 36 | 1011.5 |
| 20260505182903 | 47 | 293 | 1.0 | 3.0 | 0.00 | 0.00 | 0.00 | 37 | 1011.5 |
| 20260505182402 | 47 | 280 | 2.0 | 9.0 | 0.00 | 0.00 | 0.00 | 35 | 1011.4 |
| 20260505181903 | 47 | 320 | 1.0 | 3.0 | 0.00 | 0.00 | 0.00 | 36 | 1011.3 |
| 20260505181404 | 48 | 289 | 2.0 | 6.0 | 0.00 | 0.00 | 0.00 | 34 | 1011.3 |
| 20260505180903 | 48 | 294 | 2.0 | 5.0 | 0.00 | 0.00 | 0.00 | 34 | 1011.2 |
| 20260505180404 | 49 | 298 | 2.0 | 8.0 | 0.00 | 0.00 | 0.00 | 32 | 1011.2 |
| 20260505175903 | 49 | 290 | 2.0 | 5.0 | 0.00 | 0.00 | 0.00 | 31 | 1011.1 |
| 20260505175403 | 50 | 288 | 2.0 | 7.0 | 0.00 | 0.00 | 0.00 | 31 | 1011.1 |
| 20260505174403 | 51 | 310 | 3.0 | 5.0 | 0.00 | 0.00 | 0.00 | 32 | 1011.0 |
| 20260505173902 | 51 | 330 | 2.0 | 9.0 | 0.00 | 0.00 | 0.00 | 30 | 1010.9 |
| 20260505173403 | 51 | 316 | 3.0 | 8.0 | 0.00 | 0.00 | 0.00 | 32 | 1011.0 |
| 20260505171402 | 51 | 295 | 3.0 | 12.0 | 0.00 | 0.00 | 0.00 | 32 | 1011.0 |
| 20260505170902 | 51 | 272 | 8.0 | 14.0 | 0.00 | 0.00 | 0.00 | 29 | 1011.0 |
| 20260505170402 | 52 | 281 | 5.0 | 10.0 | 0.00 | 0.00 | 0.00 | 31 | 1011.0 |
| 20260505165902 | 52 | 316 | 5.0 | 9.0 | 0.00 | 0.00 | 0.00 | 30 | 1010.9 |
| 20260505165402 | 52 | 285 | 6.0 | 12.0 | 0.00 | 0.00 | 0.00 | 30 | 1010.9 |
| 20260505164903 | 52 | 273 | 5.0 | 16.0 | 0.00 | 0.00 | 0.00 | 30 | 1011.0 |
| 20260505164403 | 52 | 278 | 6.0 | 14.0 | 0.00 | 0.00 | 0.00 | 30 | 1010.9 |
| 20260505163903 | 52 | 309 | 2.0 | 13.0 | 0.00 | 0.00 | 0.00 | 30 | 1010.9 |
| 20260505163403 | 52 | 274 | 6.0 | 12.0 | 0.00 | 0.00 | 0.00 | 28 | 1011.0 |
| 20260505162903 | 52 | 272 | 7.0 | 14.0 | 0.00 | 0.00 | 0.00 | 29 | 1010.9 |
| 20260505162403 | 53 | 288 | 6.0 | 12.0 | 0.00 | 0.00 | 0.00 | 29 | 1010.9 |
| 20260505161902 | 53 | 279 | 3.0 | 9.0 | 0.00 | 0.00 | 0.00 | 31 | 1010.9 |
| 20260505161403 | 53 | 276 | 7.0 | 12.0 | 0.00 | 0.00 | 0.00 | 30 | 1011.0 |
| 20260505160904 | 53 | 309 | 4.0 | 10.0 | 0.00 | 0.00 | 0.00 | 29 | 1011.0 |
| 20260505152403 | 53 | 290 | 6.0 | 12.0 | 0.00 | 0.00 | 0.00 | 28 | 1010.9 |
| 20260505151903 | 54 | 288 | 5.0 | 10.0 | 0.00 | 0.00 | 0.00 | 30 | 1010.9 |
| 20260505150904 | 53 | 295 | 5.0 | 13.0 | 0.00 | 0.00 | 0.00 | 30 | 1010.9 |
| 20260505140403 | 54 | 270 | 5.0 | 13.0 | 0.00 | 0.00 | 0.00 | 34 | 1010.7 |
| 20260505124903 | 54 | 270 | 12.0 | 20.0 | 0.00 | 0.00 | 0.00 | 30 | 1010.9 |
| 20260505124403 | 53 | 275 | 6.0 | 16.0 | 0.00 | 0.00 | 0.00 | 33 | 1011.0 |
| 20260505123903 | 54 | 268 | 12.0 | 18.0 | 0.00 | 0.00 | 0.00 | 32 | 1011.1 |
| 20260505123403 | 53 | 251 | 13.0 | 20.0 | 0.00 | 0.00 | 0.00 | 30 | 1011.0 |
| 20260505122403 | 53 | 266 | 12.0 | 17.0 | 0.00 | 0.00 | 0.00 | 30 | 1011.2 |
| 20260505121903 | 53 | 260 | 12.0 | 20.0 | 0.00 | 0.00 | 0.00 | 32 | 1011.2 |
| 20260505121403 | 53 | 278 | 9.0 | 18.0 | 0.00 | 0.00 | 0.00 | 32 | 1011.3 |
| 20260505120903 | 53 | 266 | 12.0 | 21.0 | 0.00 | 0.00 | 0.00 | 33 | 1011.2 |
| 20260505120403 | 53 | 261 | 10.0 | 16.0 | 0.00 | 0.00 | 0.00 | 32 | 1011.2 |
| 20260505115903 | 53 | 256 | 11.0 | 18.0 | 0.00 | 0.00 | 0.00 | 33 | 1011.1 |
| 20260505115402 | 53 | 275 | 11.0 | 17.0 | 0.00 | 0.00 | 0.00 | 34 | 1011.1 |
| 20260505114904 | 53 | 228 | 10.0 | 14.0 | 0.00 | 0.00 | 0.00 | 33 | 1011.1 |
| 20260505114403 | 52 | 256 | 12.0 | 20.0 | 0.00 | 0.00 | 0.00 | 32 | 1011.1 |
| 20260505113903 | 52 | 275 | 13.0 | 20.0 | 0.00 | 0.00 | 0.00 | 34 | 1011.1 |
| 20260505113403 | 52 | 292 | 6.0 | 13.0 | 0.00 | 0.00 | 0.00 | 35 | 1011.1 |
| 20260505112903 | 52 | 293 | 7.0 | 12.0 | 0.00 | 0.00 | 0.00 | 37 | 1011.1 |
| 20260505111903 | 51 | 268 | 7.0 | 14.0 | 0.00 | 0.00 | 0.00 | 37 | 1011.2 |
| 20260505111403 | 52 | 275 | 7.0 | 15.0 | 0.00 | 0.00 | 0.00 | 36 | 1011.2 |
| 20260505110903 | 51 | 282 | 7.0 | 16.0 | 0.00 | 0.00 | 0.00 | 38 | 1011.1 |
| 20260505110403 | 51 | 271 | 5.0 | 13.0 | 0.00 | 0.00 | 0.00 | 37 | 1011.2 |
| 20260505101403 | 49 | 248 | 6.0 | 12.0 | 0.00 | 0.00 | 0.00 | 42 | 1011.3 |
| 20260505100903 | 49 | 257 | 10.0 | 14.0 | 0.00 | 0.00 | 0.00 | 41 | 1011.3 |
| 20260505100403 | 50 | 269 | 9.0 | 15.0 | 0.00 | 0.00 | 0.00 | 41 | 1011.3 |
| 20260505095403 | 49 | 299 | 5.0 | 12.0 | 0.00 | 0.00 | 0.00 | 41 | 1011.2 |
| 20260505094903 | 49 | 282 | 5.0 | 14.0 | 0.00 | 0.00 | 0.00 | 44 | 1011.3 |
| 20260505094403 | 48 | 266 | 9.0 | 15.0 | 0.00 | 0.00 | 0.00 | 40 | 1011.2 |
| 20260505093903 | 48 | 277 | 8.0 | 16.0 | 0.00 | 0.00 | 0.00 | 43 | 1011.0 |
| 20260505092903 | 47 | 264 | 4.0 | 13.0 | 0.00 | 0.00 | 0.00 | 43 | 1011.0 |
| 20260505092403 | 48 | 271 | 10.0 | 15.0 | 0.00 | 0.00 | 0.00 | 42 | 1010.9 |
| 20260505091903 | 48 | 273 | 7.0 | 14.0 | 0.00 | 0.00 | 0.00 | 45 | 1011.0 |
| 20260505091403 | 47 | 254 | 7.0 | 10.0 | 0.00 | 0.00 | 0.00 | 47 | 1010.9 |
| 20260505090903 | 47 | 260 | 9.0 | 14.0 | 0.00 | 0.00 | 0.00 | 46 | 1010.9 |
| 20260505090403 | 47 | 282 | 5.0 | 9.0 | 0.00 | 0.00 | 0.00 | 44 | 1010.9 |
| 20260505085903 | 47 | 305 | 5.0 | 12.0 | 0.00 | 0.00 | 0.00 | 48 | 1010.8 |
| 20260505085403 | 47 | 278 | 4.0 | 9.0 | 0.00 | 0.00 | 0.00 | 47 | 1010.7 |
| 20260505084904 | 47 | 284 | 7.0 | 12.0 | 0.00 | 0.00 | 0.00 | 47 | 1010.7 |
| 20260505084403 | 47 | 256 | 4.0 | 12.0 | 0.00 | 0.00 | 0.00 | 50 | 1010.7 |
| 20260505083904 | 46 | 277 | 4.0 | 12.0 | 0.00 | 0.00 | 0.00 | 48 | 1010.7 |
| 20260505082904 | 46 | 282 | 9.0 | 14.0 | 0.00 | 0.00 | 0.00 | 48 | 1010.6 |
| 20260505082404 | 46 | 273 | 9.0 | 14.0 | 0.00 | 0.00 | 0.00 | 50 | 1010.7 |
| 20260505081903 | 46 | 266 | 6.0 | 10.0 | 0.00 | 0.00 | 0.00 | 48 | 1010.7 |
| 20260505080904 | 46 | 265 | 6.0 | 12.0 | 0.00 | 0.00 | 0.00 | 52 | 1010.7 |
| 20260505080403 | 46 | 272 | 4.0 | 8.0 | 0.00 | 0.00 | 0.00 | 53 | 1010.7 |
| 20260505075404 | 45 | 285 | 5.0 | 9.0 | 0.00 | 0.00 | 0.00 | 54 | 1010.6 |
| 20260505074903 | 45 | 315 | 4.0 | 9.0 | 0.00 | 0.00 | 0.00 | 54 | 1010.6 |
| 20260505074403 | 45 | 291 | 3.0 | 9.0 | 0.00 | 0.00 | 0.00 | 55 | 1010.5 |
| 20260505073903 | 44 | 295 | 5.0 | 10.0 | 0.00 | 0.00 | 0.00 | 54 | 1010.5 |
| 20260505073403 | 44 | 271 | 5.0 | 12.0 | 0.00 | 0.00 | 0.00 | 54 | 1010.5 |
| 20260505072904 | 45 | 256 | 6.0 | 10.0 | 0.00 | 0.00 | 0.00 | 53 | 1010.4 |
| 20260505072403 | 45 | 289 | 4.0 | 9.0 | 0.00 | 0.00 | 0.00 | 55 | 1010.3 |
| 20260505071903 | 44 | 292 | 2.0 | 12.0 | 0.00 | 0.00 | 0.00 | 58 | 1010.3 |
| 20260505071403 | 44 | 268 | 5.0 | 12.0 | 0.00 | 0.00 | 0.00 | 56 | 1010.2 |
| 20260505070904 | 44 | 305 | 3.0 | 9.0 | 0.00 | 0.00 | 0.00 | 60 | 1010.2 |
| 20260505070403 | 44 | 274 | 7.0 | 13.0 | 0.00 | 0.00 | 0.00 | 56 | 1010.2 |
| 20260505065903 | 44 | 277 | 8.0 | 12.0 | 0.00 | 0.00 | 0.00 | 57 | 1010.1 |
| 20260505065403 | 44 | 272 | 8.0 | 13.0 | 0.00 | 0.00 | 0.00 | 57 | 1010.1 |
| 20260505064904 | 44 | 259 | 6.0 | 12.0 | 0.00 | 0.00 | 0.00 | 57 | 1010.1 |
| 20260505064403 | 43 | 289 | 3.0 | 12.0 | 0.00 | 0.00 | 0.00 | 60 | 1010.0 |
| 20260505063903 | 43 | 296 | 6.0 | 12.0 | 0.00 | 0.00 | 0.00 | 60 | 1010.0 |
| 20260505063403 | 43 | 277 | 6.0 | 12.0 | 0.00 | 0.00 | 0.00 | 60 | 1010.1 |
| 20260505062904 | 43 | 273 | 5.0 | 13.0 | 0.00 | 0.00 | 0.00 | 61 | 1010.0 |
| 20260505062403 | 43 | 276 | 4.0 | 9.0 | 0.00 | 0.00 | 0.00 | 61 | 1010.1 |
| 20260505061404 | 43 | 274 | 6.0 | 12.0 | 0.00 | 0.00 | 0.00 | 60 | 1010.0 |
| 20260505060904 | 43 | 300 | 6.0 | 15.0 | 0.00 | 0.00 | 0.00 | 60 | 1010.0 |
| 20260505060404 | 43 | 304 | 3.0 | 9.0 | 0.00 | 0.00 | 0.00 | 62 | 1010.0 |
| 20260505055903 | 43 | 283 | 3.0 | 9.0 | 0.00 | 0.00 | 0.00 | 63 | 1009.9 |
| 20260505055403 | 43 | 308 | 1.0 | 8.0 | 0.00 | 0.00 | 0.00 | 64 | 1009.8 |
| 20260505054904 | 43 | 300 | 3.0 | 7.0 | 0.00 | 0.00 | 0.00 | 63 | 1009.9 |
| 20260505054403 | 43 | 308 | 2.0 | 8.0 | 0.00 | 0.00 | 0.00 | 64 | 1009.8 |
| 20260505052903 | 42 | 288 | 4.0 | 8.0 | 0.00 | 0.00 | 0.00 | 64 | 1009.7 |
| 20260505052403 | 42 | 285 | 4.0 | 9.0 | 0.00 | 0.00 | 0.00 | 65 | 1009.6 |
| 20260505051904 | 42 | 293 | 3.0 | 9.0 | 0.00 | 0.00 | 0.00 | 66 | 1009.7 |
| 20260505051404 | 41 | 272 | 4.0 | 9.0 | 0.00 | 0.00 | 0.00 | 66 | 1009.6 |
| 20260505050903 | 41 | 283 | 3.0 | 10.0 | 0.00 | 0.00 | 0.00 | 68 | 1009.6 |
| 20260505050404 | 41 | 287 | 3.0 | 8.0 | 0.00 | 0.00 | 0.00 | 70 | 1009.6 |
| 20260505041404 | 38 | 272 | 3.0 | 8.0 | 0.00 | 0.00 | 0.00 | 76 | 1009.1 |
| 20260505040903 | 38 | 269 | 4.0 | 7.0 | 0.00 | 0.00 | 0.00 | 77 | 1009.0 |
| 20260505040404 | 38 | 269 | 4.0 | 7.0 | 0.00 | 0.00 | 0.00 | 78 | 1009.0 |
| 20260505035903 | 37 | 272 | 3.0 | 7.0 | 0.00 | 0.00 | 0.00 | 79 | 1009.0 |
| 20260505035404 | 37 | 278 | 1.0 | 3.0 | 0.00 | 0.00 | 0.00 | 79 | 1008.9 |
| 20260505034404 | 37 | 315 | 1.0 | 3.0 | 0.00 | 0.01 | 0.00 | 80 | 1008.8 |
| 20260505033903 | 37 | 307 | 1.0 | 5.0 | 0.00 | 0.01 | 0.00 | 81 | 1008.7 |
| 20260505032904 | 37 | 306 | 1.0 | 3.0 | 0.00 | 0.01 | 0.00 | 83 | 1008.6 |
| 20260505032404 | 36 | 303 | 1.0 | 3.0 | 0.00 | 0.01 | 0.00 | 84 | 1008.6 |
| 20260505031904 | 37 | 298 | 0.0 | 3.0 | 0.00 | 0.01 | 0.00 | 85 | 1008.5 |
| 20260505031403 | 37 | 270 | 0.0 | 3.0 | 0.00 | 0.01 | 0.00 | 86 | 1008.5 |
| 20260505030903 | 37 | 271 | 1.0 | 3.0 | 0.00 | 0.01 | 0.00 | 86 | 1008.5 |
| 20260505030404 | 37 | 301 | 0.0 | 3.0 | 0.00 | 0.01 | 0.00 | 86 | 1008.5 |
| 20260505025903 | 37 | 287 | 0.0 | 3.0 | 0.00 | 0.01 | 0.00 | 87 | 1008.4 |
| 20260505025405 | 38 | 287 | 1.0 | 3.0 | 0.00 | 0.01 | 0.00 | 87 | 1008.4 |
| 20260505024903 | 38 | 285 | 0.0 | 2.0 | 0.00 | 0.02 | 0.00 | 88 | 1008.4 |
| 20260505024404 | 39 | 277 | 1.0 | 3.0 | 0.00 | 0.02 | 0.00 | 88 | 1008.4 |
| 20260505023903 | 39 | 276 | 2.0 | 3.0 | 0.00 | 0.02 | 0.00 | 88 | 1008.3 |
| 20260505023403 | 39 | 273 | 3.0 | 7.0 | 0.00 | 0.02 | 0.00 | 88 | 1008.3 |
| 20260505022904 | 40 | 271 | 5.0 | 7.0 | 0.00 | 0.02 | 0.00 | 88 | 1008.3 |
| 20260505022403 | 41 | 262 | 4.0 | 8.0 | 0.00 | 0.02 | 0.00 | 89 | 1008.3 |
| 20260505021904 | 41 | 266 | 5.0 | 8.0 | 0.00 | 0.02 | 0.00 | 89 | 1008.3 |
| 20260505021403 | 42 | 252 | 7.0 | 10.0 | 0.00 | 0.03 | 0.00 | 90 | 1008.2 |
| 20260505020904 | 42 | 258 | 7.0 | 10.0 | 0.00 | 0.03 | 0.00 | 90 | 1008.2 |
| 20260505020403 | 42 | 248 | 9.0 | 12.0 | 0.00 | 0.03 | 0.00 | 90 | 1008.2 |
| 20260505015904 | 42 | 250 | 9.0 | 12.0 | 0.00 | 0.03 | 0.00 | 90 | 1008.1 |
| 20260505015404 | 42 | 249 | 8.0 | 12.0 | 0.00 | 0.03 | 0.00 | 90 | 1008.1 |
| 20260505014903 | 42 | 245 | 8.0 | 12.0 | 0.00 | 0.04 | 0.00 | 91 | 1008.0 |
| 20260505014404 | 42 | 242 | 7.0 | 10.0 | 0.00 | 0.04 | 0.00 | 90 | 1008.0 |
| 20260505013403 | 42 | 237 | 8.0 | 12.0 | 0.00 | 0.06 | 0.00 | 90 | 1007.9 |
| 20260505012903 | 42 | 229 | 9.0 | 12.0 | 0.00 | 0.06 | 0.00 | 91 | 1007.9 |
| 20260505012404 | 42 | 229 | 9.0 | 12.0 | 0.00 | 0.07 | 0.00 | 90 | 1007.9 |
| 20260505011903 | 42 | 227 | 9.0 | 12.0 | 0.00 | 0.07 | 0.00 | 90 | 1007.9 |
| 20260505011404 | 42 | 231 | 9.0 | 12.0 | 0.00 | 0.07 | 0.00 | 90 | 1007.9 |
| 20260505010903 | 42 | 230 | 9.0 | 14.0 | 0.00 | 0.07 | 0.00 | 90 | 1007.9 |
| 20260505010403 | 42 | 232 | 10.0 | 13.0 | 0.00 | 0.07 | 0.00 | 90 | 1007.9 |
| 20260505005903 | 43 | 230 | 9.0 | 13.0 | 0.00 | 0.07 | 0.00 | 90 | 1007.8 |
| 20260505004404 | 43 | 233 | 10.0 | 15.0 | 0.00 | 0.07 | 0.00 | 90 | 1007.7 |
| 20260505003904 | 43 | 232 | 10.0 | 13.0 | 0.00 | 0.07 | 0.00 | 90 | 1007.8 |
| 20260505003404 | 43 | 231 | 11.0 | 15.0 | 0.00 | 0.07 | 0.00 | 90 | 1007.8 |
| 20260505002903 | 43 | 231 | 11.0 | 14.0 | 0.00 | 0.07 | 0.00 | 90 | 1007.8 |
| 20260505002403 | 43 | 232 | 10.0 | 15.0 | 0.00 | 0.07 | 0.00 | 90 | 1007.7 |
| 20260505001904 | 43 | 232 | 10.0 | 17.0 | 0.00 | 0.07 | 0.00 | 90 | 1007.7 |
| 20260505001404 | 43 | 229 | 10.0 | 14.0 | 0.00 | 0.07 | 0.00 | 90 | 1007.6 |
| 20260505000405 | 44 | 232 | 12.0 | 15.0 | 0.00 | 0.07 | 0.00 | 90 | 1007.6 |
| 20260504235904 | 44 | 232 | 12.0 | 15.0 | 0.00 | 0.07 | 0.00 | 90 | 1007.5 |
| 20260504235404 | 44 | 227 | 13.0 | 16.0 | 0.00 | 0.07 | 0.00 | 90 | 1007.4 |
| 20260504234904 | 44 | 231 | 12.0 | 17.0 | 0.00 | 0.07 | 0.00 | 90 | 1007.5 |
| 20260504234404 | 44 | 232 | 12.0 | 16.0 | 0.00 | 0.07 | 0.00 | 89 | 1007.7 |
| 20260504233904 | 44 | 234 | 11.0 | 15.0 | 0.00 | 0.07 | 0.00 | 89 | 1007.7 |
| 20260504233404 | 44 | 236 | 13.0 | 15.0 | 0.00 | 0.07 | 0.00 | 89 | 1007.6 |
| 20260504232904 | 44 | 234 | 12.0 | 16.0 | 0.00 | 0.07 | 0.00 | 89 | 1007.5 |
| 20260504232405 | 44 | 233 | 12.0 | 16.0 | 0.00 | 0.07 | 0.00 | 90 | 1007.5 |
| 20260504231904 | 44 | 237 | 12.0 | 15.0 | 0.00 | 0.07 | 0.00 | 89 | 1007.5 |
| 20260504231403 | 44 | 232 | 11.0 | 14.0 | 0.00 | 0.07 | 0.00 | 89 | 1007.5 |
| 20260504225904 | 44 | 226 | 13.0 | 16.0 | 0.00 | 0.07 | 0.00 | 89 | 1007.3 |
| 20260504225404 | 44 | 228 | 12.0 | 16.0 | 0.00 | 0.07 | 0.00 | 88 | 1007.3 |
| 20260504224404 | 44 | 226 | 12.0 | 15.0 | 0.00 | 0.07 | 0.00 | 88 | 1007.3 |
| 20260504223904 | 44 | 225 | 13.0 | 15.0 | 0.00 | 0.07 | 0.00 | 88 | 1007.3 |
| 20260504223403 | 44 | 222 | 13.0 | 16.0 | 0.00 | 0.07 | 0.00 | 88 | 1007.3 |
| 20260504222903 | 44 | 224 | 12.0 | 16.0 | 0.00 | 0.07 | 0.00 | 88 | 1007.3 |
| 20260504222404 | 44 | 224 | 14.0 | 17.0 | 0.00 | 0.07 | 0.00 | 88 | 1007.3 |
| 20260504221904 | 44 | 223 | 13.0 | 18.0 | 0.00 | 0.07 | 0.00 | 87 | 1007.4 |
| 20260504221404 | 44 | 220 | 12.0 | 17.0 | 0.00 | 0.07 | 0.00 | 87 | 1007.3 |
| 20260504220904 | 45 | 223 | 13.0 | 16.0 | 0.00 | 0.07 | 0.00 | 87 | 1007.3 |
| 20260504215903 | 45 | 226 | 13.0 | 20.0 | 0.00 | 0.07 | 0.07 | 86 | 1007.3 |
| 20260504215404 | 45 | 227 | 14.0 | 17.0 | 0.00 | 0.07 | 0.07 | 86 | 1007.4 |
| 20260504214904 | 45 | 226 | 14.0 | 17.0 | 0.00 | 0.07 | 0.07 | 86 | 1007.3 |
| 20260504214404 | 45 | 225 | 16.0 | 20.0 | 0.00 | 0.07 | 0.07 | 86 | 1007.4 |
| 20260504213904 | 45 | 225 | 13.0 | 20.0 | 0.00 | 0.07 | 0.07 | 86 | 1007.4 |
| 20260504213404 | 45 | 231 | 13.0 | 20.0 | 0.00 | 0.07 | 0.07 | 86 | 1007.5 |
| 20260504212903 | 45 | 230 | 13.0 | 18.0 | 0.00 | 0.07 | 0.07 | 86 | 1007.5 |
| 20260504212404 | 45 | 229 | 14.0 | 21.0 | 0.00 | 0.07 | 0.07 | 86 | 1007.5 |
| 20260504211903 | 45 | 229 | 14.0 | 20.0 | 0.00 | 0.07 | 0.07 | 85 | 1007.5 |
| 20260504211403 | 45 | 229 | 14.0 | 20.0 | 0.00 | 0.07 | 0.07 | 85 | 1007.5 |
| 20260504210903 | 45 | 225 | 15.0 | 21.0 | 0.00 | 0.07 | 0.07 | 84 | 1007.6 |
| 20260504210404 | 45 | 226 | 14.0 | 18.0 | 0.00 | 0.07 | 0.07 | 84 | 1007.6 |
| 20260504205902 | 46 | 227 | 14.0 | 21.0 | 0.00 | 0.07 | 0.07 | 84 | 1007.6 |
| 20260504205403 | 46 | 228 | 13.0 | 20.0 | 0.00 | 0.07 | 0.07 | 83 | 1007.6 |
| 20260504204904 | 46 | 220 | 16.0 | 20.0 | 0.00 | 0.07 | 0.07 | 83 | 1007.5 |
| 20260504204402 | 46 | 224 | 16.0 | 22.0 | 0.00 | 0.07 | 0.07 | 82 | 1007.5 |
| 20260504203902 | 46 | 222 | 16.0 | 20.0 | 0.00 | 0.07 | 0.07 | 82 | 1007.5 |
| 20260504203403 | 46 | 234 | 17.0 | 22.0 | 0.00 | 0.07 | 0.07 | 81 | 1007.5 |
| 20260504202903 | 46 | 223 | 17.0 | 23.0 | 0.00 | 0.07 | 0.07 | 81 | 1007.6 |
| 20260504202403 | 46 | 228 | 15.0 | 20.0 | 0.00 | 0.07 | 0.07 | 80 | 1007.6 |
| 20260504201903 | 46 | 230 | 16.0 | 20.0 | 0.00 | 0.07 | 0.07 | 80 | 1007.6 |
| 20260504200403 | 47 | 234 | 14.0 | 18.0 | 0.00 | 0.07 | 0.07 | 78 | 1007.6 |
| 20260504195903 | 47 | 233 | 17.0 | 22.0 | 0.00 | 0.07 | 0.07 | 77 | 1007.7 |
| 20260504194903 | 48 | 234 | 14.0 | 21.0 | 0.00 | 0.07 | 0.07 | 74 | 1007.8 |
| 20260504194402 | 48 | 232 | 13.0 | 21.0 | 0.00 | 0.07 | 0.07 | 74 | 1007.8 |
| 20260504193902 | 48 | 227 | 16.0 | 21.0 | 0.00 | 0.07 | 0.07 | 73 | 1007.7 |
| 20260504193402 | 48 | 238 | 16.0 | 20.0 | 0.00 | 0.07 | 0.07 | 73 | 1007.7 |
| 20260504192903 | 48 | 234 | 16.0 | 21.0 | 0.00 | 0.07 | 0.07 | 72 | 1007.7 |
| 20260504192403 | 49 | 236 | 16.0 | 20.0 | 0.00 | 0.07 | 0.07 | 70 | 1007.6 |